CDT,Max TemperatureF,Mean TemperatureF,Min TemperatureF,Max Dew PointF,MeanDew PointF,Min DewpointF,Max Humidity, Mean Humidity, Min Humidity, Max Sea Level PressureIn, Mean Sea Level PressureIn, Min Sea Level PressureIn, Max VisibilityMiles, Mean VisibilityMiles, Min VisibilityMiles, Max Wind SpeedMPH, Mean Wind SpeedMPH, Max Gust SpeedMPH,PrecipitationIn, CloudCover, Events, WindDirDegrees
2013-5-1,48,40,33,43,32,27,93,74,53,30.51,30.32,30.04,10,8,1,20,14,26,0.35,5,,348
2013-5-2,53,44,35,30,25,19,75,53,30,30.64,30.54,30.44,10,10,10,26,14,33,0.00,2,,347
2013-5-3,53,40,26,27,23,18,93,55,24,30.44,30.27,30.12,10,10,9,21,10,30,0.00,1,,349
2013-5-4,42,40,39,39,32,23,100,73,46,30.20,30.15,30.10,10,9,3,20,12,25,0.00,8,,351
2013-5-5,50,44,39,43,40,37,100,86,76,30.21,30.18,30.14,10,10,8,16,9,16,0.02,7,,327
2013-5-6,66,50,35,46,41,34,100,72,39,30.16,30.11,30.03,10,9,2,8,3,,0.00,2,,335
2013-5-7,73,58,44,54,48,41,94,72,36,30.05,30.00,29.94,10,10,5,17,6,28,0.00,1,,130
2013-5-8,68,62,55,57,55,52,100,88,64,29.96,29.93,29.89,10,8,2,10,6,,0.05,7,Thunderstorm,112
2013-5-9,62,56,51,54,53,48,100,87,68,30.08,30.00,29.93,10,8,3,18,11,25,0.00,5,,5
2013-5-10,68,56,44,48,45,37,100,67,40,30.14,30.07,29.99,10,10,3,17,6,26,0.00,3,,304
2013-5-11,60,50,41,45,29,19,81,48,25,30.33,30.25,30.06,10,10,10,29,15,37,0.00,0,,329
2013-5-12,64,46,28,30,24,19,86,39,22,30.27,30.19,30.07,10,10,8,8,4,,0.00,0,,85
2013-5-13,89,68,48,52,43,28,67,43,22,30.07,29.90,29.76,10,10,10,22,9,26,0.00,0,,178
2013-5-14,95,77,59,54,46,36,72,36,19,29.81,29.69,29.61,10,10,3,26,11,33,0.00,0,,260
2013-5-15,80,66,53,48,44,37,67,42,28,30.00,29.90,29.82,10,10,10,15,8,20,0.00,0,,64
2013-5-16,82,68,53,59,50,43,88,62,26,29.90,29.84,29.74,10,10,9,28,8,39,0.08,2,Thunderstorm,79
2013-5-17,87,73,59,64,60,57,100,68,35,29.85,29.80,29.73,10,9,2,17,9,23,0.00,1,,143
2013-5-18,82,73,64,64,61,57,88,64,51,29.90,29.80,29.66,10,10,8,29,9,41,0.04,3,Thunderstorm,133
2013-5-19,69,63,57,63,59,55,100,86,64,29.70,29.61,29.50,10,10,5,13,6,20,0.49,4,Thunderstorm,207
2013-5-20,66,60,55,57,53,50,100,80,56,29.56,29.53,29.50,10,10,6,20,12,24,0.19,7,,239
2013-5-21,60,55,50,55,50,46,94,87,72,29.74,29.61,29.55,10,7,2,26,15,32,0.07,8,,277
2013-5-22,55,52,48,50,48,46,100,88,77,30.03,29.84,29.71,10,6,1,22,15,26,0.08,8,,323
2013-5-23,69,56,44,48,43,36,94,63,37,30.25,30.18,30.03,10,10,10,17,10,24,0.00,1,,50
2013-5-24,73,60,46,50,45,37,76,57,38,30.24,30.14,30.01,10,10,9,25,12,32,0.00,5,,131
2013-5-25,75,66,57,61,55,46,94,67,52,30.03,29.99,29.95,10,10,5,20,13,30,0.00,2,Thunderstorm,108
2013-5-26,71,61,51,63,55,50,100,89,73,30.00,29.94,29.86,10,9,3,23,16,34,0.01,7,Thunderstorm,89
2013-5-27,71,63,55,61,58,54,100,84,69,29.92,29.79,29.71,10,10,5,39,12,46,1.01,5,Thunderstorm,93
2013-5-28,75,66,57,61,58,55,100,79,57,29.77,29.71,29.56,10,10,4,22,8,29,0.04,3,Thunderstorm,23
2013-5-29,75,68,60,66,62,59,94,83,61,29.70,29.58,29.45,10,8,5,25,10,34,0.14,4,Thunderstorm,120
2013-5-30,78,68,57,61,55,46,94,66,42,29.53,29.46,29.42,10,10,8,25,12,32,0.02,2,Thunderstorm,191
2013-5-31,71,64,57,52,47,45,82,54,41,29.61,29.55,29.51,10,10,10,26,17,33,0.00,4,,241